Regional Weather Roundup
Issued by NWS

Home | Current Version | Previous Version | Graphics & Text | Print | Product List | Glossary Off
Versions: 1 2 3 4 5 6 7 8 9 10 11 12 13 14 15 16 17 18 19 20 21 22 23 24 25 26 27 28 29 30 31 32 33 34 35 36 37 38 39 40 41 42 43 44 45 46 47 48 49 50

000
ASUS43 KTOP 171559
RWRKS

WEATHER ROUNDUP FOR KANSAS
NATIONAL WEATHER SERVICE GOODLAND KS
1100 AM CDT WED SEP 17 2014

NOTE:  "FAIR" INDICATES FEW OR NO CLOUDS BELOW 12,000 FEET WITH NO
SIGNIFICANT WEATHER AND/OR OBSTRUCTIONS TO VISIBILITY.

KSZ001>006-013>018-027>032-041>047-171700-
NORTHWEST KANSAS

CITY           SKY/WX    TMP DP  RH WIND       PRES   REMARKS
GOODLAND       SUNNY     76  52  43 E5        30.00S
HILL CITY      SUNNY     68  59  73 CALM      29.95S
RUSSELL        SUNNY     74  63  68 NE7       29.91R
$$

KSZ061>065-074>080-084>089-171700-
SOUTHWEST KANSAS

CITY           SKY/WX    TMP DP  RH WIND       PRES   REMARKS
DODGE CITY     MOSUNNY   76  61  59 SW6       29.95S
ELKHART          N/A     74  61  64 W7          N/A
$$

KSZ066>073-081>083-090>101-171700-
SOUTHEAST KANSAS

CITY           SKY/WX    TMP DP  RH WIND       PRES   REMARKS
CHANUTE        SUNNY     81  70  69 SW15      29.91F
COFFEYVILLE    SUNNY     81  71  71 SW12      29.92F
HUTCHINSON     SUNNY     81  66  60 SW6       29.91R
PARSONS        SUNNY     81  72  74 SW12      29.93F
WICHITA INTL   MOSUNNY   82  66  58 SW8       29.91S
WICHITA JABRA  SUNNY     82  66  58 SW9       29.90F
$$

KSZ007>012-019>026-033>040-048>060-102>105-171700-
NORTHEAST KANSAS

CITY           SKY/WX    TMP DP  RH WIND       PRES   REMARKS
CONCORDIA      CLOUDY    68  66  94 E7        29.93R
EMPORIA        MOSUNNY   75  69  81 NE6       29.92R
LAWRENCE       CLOUDY    68  66  93 SE3       29.93S FOG
MANHATTAN      CLOUDY    71  67  87 NE8       29.92S
OLATHE IND     CLOUDY    69  67  93 CALM      29.94S FOG
OLATHE EXE     CLOUDY    67  67 100 E3        29.94R FOG
SALINA         SUNNY     77  67  71 NE6       29.91S
TOPEKA BILLARD CLOUDY    69  68  96 E3        29.93S FOG
TOPEKA FORBES  CLOUDY    69  66  90 CALM      29.93S FOG
$$


USA.gov is the U.S. government's official web portal to all federal, state and local government web resources and services.